Tracking 28081 objects as of 27-Sep-2023
HD Live streaming from Space Station
objects crossing your sky now

SL-12 R/B(2)

Track SL-12 R/B(2) now!


NORAD ID: 25318
Int'l Code: 1998-025D
Perigee: 35,710.8 km
Apogee: 36,002.0 km
Inclination: 13.6 °
Period: 1,439.3 minutes
Semi major axis: 42227 km
RCS: 1.1651 m2 (large)
Launch date: April 29, 1998
Source: Commonwealth of Independent States (former USSR) (CIS)
Launch site: TYURATAM MISSILE AND SPACE COMPLEX (TTMTR)

Note: This is a ROCKET BODY
Your satellite tracking list
Your tracking list is empty




NASA's NSSDC Master Catalog

Two Line Element Set (TLE):
1 25318U 98025D   23269.51025794  .00000097  00000-0  00000-0 0  9994
2 25318  13.6185  10.9180 0034473 108.9509 281.3430  1.00048678 92823
Source of the keplerian elements: AFSPC